Regional Weather Roundup
Issued by NWS Little Rock, AR

Home | Current Version | Previous Version | Graphics & Text | Print | Product List | Glossary On
Versions: 1 2 3 4 5 6 7 8 9 10 11 12 13 14 15 16 17 18 19 20 21 22 23 24 25 26 27
000
ASUS44 KLZK 022305
RWRLZK

WEATHER ROUNDUP FOR ARKANSAS
NATIONAL WEATHER SERVICE LITTLE ROCK AR
600 PM CDT MON MAY 02 2016

NOTE: "FAIR" INDICATES FEW OR NO CLOUDS BELOW 12,000 FEET WITH NO
SIGNIFICANT WEATHER AND/OR OBSTRUCTIONS TO VISIBILITY.

ARZ001-003-010-029-030000-
NORTHWEST ARKANSAS

CITY           SKY/WX    TMP DP  RH WIND       PRES   REMARKS
FAYETTEVILLE   CLOUDY    53  47  79 NW12      30.06S
FORT SMITH     CLOUDY    61  46  57 NW12      30.05S
HARRISON       CLOUDY    53  49  86 NW6       30.04F
BENTONVILLE    CLOUDY    54  43  66 N5        30.08S
ROGERS         CLOUDY    52  45  77 NW7       30.08S
SILOAM SPGS    CLOUDY    54  41  62 NW8       30.09S
HIGHFILL       CLOUDY    54  46  74 NW8       30.07S
SPRINGDALE     CLOUDY    54  46  76 NW12      30.08S
$$

ARZ004-005-016-030000-
NORTH CENTRAL ARKANSAS

CITY           SKY/WX    TMP DP  RH WIND       PRES   REMARKS
BATESVILLE     CLOUDY    63  50  63 NW9       29.99R
FLIPPIN        CLOUDY   N/A N/A N/A NW9       30.00S
MTN HOME       PTSUNNY   59  48  67 VRB7      30.01S
$$

ARZ040-041-030000-
WEST CENTRAL ARKANSAS

CITY           SKY/WX    TMP DP  RH WIND       PRES   REMARKS
MENA           NOT AVBL
MOUNT IDA      CLOUDY    64  52  64 VRB7      30.00R
$$

ARZ009-017-025-026-028-030000-
NORTHEAST ARKANSAS

CITY           SKY/WX    TMP DP  RH WIND       PRES   REMARKS
JONESBORO      PTSUNNY   68  53  58 NW8G18    29.95F
NEWPORT        SUNNY     68  52  56 NW15      29.97S
WALNUT RIDGE   PTSUNNY   66  48  52 NW18      29.96S
BLYTHEVILLE    PTSUNNY   67  57  70 N13       29.95F
$$

ARZ022-023-033-042-044-030000-
CENTRAL ARKANSAS

CITY           SKY/WX    TMP DP  RH WIND       PRES   REMARKS
LITTLE ROCK    PTSUNNY   68  52  56 NW10      29.98F
N LITTLE ROCK    N/A     65  55  69 NW3       29.98S
SEARCY         PTSUNNY   66  55  68 NW10      29.99S
HOT SPRINGS    CLOUDY    65  53  65 NW3       30.00F
RUSSELLVILLE   CLOUDY    64  51  62 N7        30.00F
$$

ARZ036-030000-
EAST ARKANSAS

CITY           SKY/WX    TMP DP  RH WIND       PRES   REMARKS
WEST MEMPHIS   PTSUNNY   66  56  70 N7        29.94S
$$

ARZ050-053-066-070-073-030000-
SOUTHWEST ARKANSAS

CITY           SKY/WX    TMP DP  RH WIND       PRES   REMARKS
ARKADELPHIA    CLOUDY    67  60  78 NW3       30.00F
CAMDEN         PTSUNNY   66  54  63 NW5       30.00S
TEXARKANA      CLOUDY    67  56  67 W9        30.02F
EL DORADO      CLOUDY    65  59  81 NW6       30.00S
DE QUEEN       CLOUDY    65  51  60 NW6       30.02S
$$

ARZ056-057-069-030000-
SOUTHEAST ARKANSAS

CITY           SKY/WX    TMP DP  RH WIND       PRES   REMARKS
PINE BLUFF     CLOUDY    66  58  75 N9        29.97F
STUTTGART      MOSUNNY   66  54  63 NW10      29.97F
MONTICELLO     CLOUDY    64  59  83 W5        29.97F

$$






USA.gov is the U.S. government's official web portal to all federal, state and local government web resources and services.